When you browse on this site, cookies collect data to enhance your experience and personalize the content and advertising you see.
Visit our Privacy Policy to learn more. By continuing to use the site, you agree to this use of cookies and data.
  • In Sweden
  • List of Countries
  • For 7 days
  • Water Temperature
  • Satellite Maps
  • Weather Map
  • Weather Widgets
  • user-avatar
    Login

    Hourly Weather Uspenka

    Today, 23 April, Tuesday

    Time Temperature Precipitation Wind Pressure Humidity
    00:00 +8°C° 0 mm 1 mps 757 mmHg 43%
    01:00 +7°C° 0 mm 0 mps 757 mmHg 45%
    02:00 +7°C° 0 mm 0 mps 757 mmHg 47%
    03:00 +6°C° 0 mm 0 mps 757 mmHg 48%
    04:00 +5°C° 0 mm 0 mps 756 mmHg 50%
    05:00 +5°C° 0 mm 2 mps 756 mmHg 46%
    06:00 +6°C° 0 mm 2 mps 756 mmHg 43%
    07:00 +8°C° 0 mm 2 mps 756 mmHg 40%
    08:00 +9°C° 0 mm 2 mps 756 mmHg 36%
    09:00 +10°C° 0 mm 2 mps 755 mmHg 34%
    10:00 +10°C° 0 mm 2 mps 755 mmHg 31%
    11:00 +11°C° 0 mm 3 mps 755 mmHg 31%
    12:00 +11°C° 0 mm 3 mps 754 mmHg 31%
    13:00 +11°C° 0 mm 3 mps 754 mmHg 31%
    14:00 +11°C° 0 mm 3 mps 754 mmHg 32%
    15:00 +11°C° 0.1 mm 3 mps 753 mmHg 36%
    16:00 +10°C° 0.1 mm 3 mps 753 mmHg 41%
    17:00 +10°C° 0.1 mm 3 mps 753 mmHg 46%
    18:00 +9°C° 0.1 mm 2 mps 753 mmHg 51%
    19:00 +8°C° 0.1 mm 2 mps 753 mmHg 55%
    20:00 +9°C° 0.1 mm 1 mps 753 mmHg 60%
    21:00 +7°C° 0 mm 2 mps 753 mmHg 63%
    22:00 +6°C° 0 mm 2 mps 752 mmHg 67%
    23:00 +6°C° 0 mm 2 mps 752 mmHg 70%

    Tomorrow, 24 April, Wednesday

    Time Temperature Precipitation Wind Pressure Humidity
    00:00 +6°C° 0 mm 2 mps 752 mmHg 72%
    01:00 +4°C° 0 mm 3 mps 752 mmHg 74%
    02:00 +4°C° 0 mm 3 mps 752 mmHg 76%
    03:00 +4°C° 0 mm 3 mps 752 mmHg 76%
    04:00 +4°C° 0 mm 3 mps 751 mmHg 75%
    05:00 +3°C° 0 mm 3 mps 751 mmHg 75%
    06:00 +5°C° 0 mm 3 mps 751 mmHg 66%
    07:00 +8°C° 0 mm 3 mps 751 mmHg 58%
    08:00 +10°C° 0 mm 3 mps 751 mmHg 49%
    09:00 +12°C° 0 mm 4 mps 751 mmHg 46%
    10:00 +13°C° 0 mm 5 mps 751 mmHg 44%
    11:00 +15°C° 0 mm 5 mps 750 mmHg 41%
    12:00 +15°C° 0 mm 5 mps 750 mmHg 39%
    13:00 +16°C° 0 mm 5 mps 750 mmHg 36%
    14:00 +16°C° 0 mm 5 mps 749 mmHg 34%
    15:00 +16°C° 0 mm 5 mps 749 mmHg 34%
    16:00 +16°C° 0 mm 5 mps 748 mmHg 35%
    17:00 +15°C° 0 mm 5 mps 748 mmHg 35%
    18:00 +14°C° 0 mm 4 mps 748 mmHg 38%
    19:00 +13°C° 0 mm 4 mps 748 mmHg 41%
    20:00 +12°C° 0 mm 3 mps 748 mmHg 44%
    21:00 +12°C° 0 mm 4 mps 747 mmHg 45%
    22:00 +12°C° 0 mm 4 mps 747 mmHg 46%
    23:00 +12°C° 0 mm 4 mps 747 mmHg 47%

    Day after tomorrow, 25 April, Thursday

    Time Temperature Precipitation Wind Pressure Humidity
    00:00 +11°C° 0 mm 4 mps 746 mmHg 47%
    01:00 +11°C° 0 mm 4 mps 746 mmHg 48%
    02:00 +10°C° 0 mm 5 mps 745 mmHg 48%
    03:00 +10°C° 0 mm 4 mps 745 mmHg 50%
    04:00 +10°C° 0 mm 4 mps 745 mmHg 53%
    05:00 +8°C° 0 mm 4 mps 745 mmHg 55%
    06:00 +9°C° 0 mm 5 mps 745 mmHg 53%
    07:00 +10°C° 0 mm 5 mps 745 mmHg 51%
    08:00 +11°C° 0 mm 6 mps 745 mmHg 49%
    09:00 +12°C° 0 mm 7 mps 745 mmHg 46%
    10:00 +13°C° 0 mm 8 mps 745 mmHg 42%
    11:00 +15°C° 0 mm 8 mps 746 mmHg 39%
    12:00 +15°C° 0.1 mm 8 mps 746 mmHg 39%
    13:00 +15°C° 0.1 mm 8 mps 746 mmHg 39%
    14:00 +13°C° 0.1 mm 8 mps 746 mmHg 39%
    15:00 +13°C° 0 mm 8 mps 746 mmHg 39%
    16:00 +14°C° 0 mm 7 mps 746 mmHg 39%
    17:00 +14°C° 0 mm 7 mps 746 mmHg 39%
    18:00 +13°C° 0.1 mm 6 mps 746 mmHg 46%
    19:00 +12°C° 0.1 mm 5 mps 746 mmHg 54%
    20:00 +11°C° 0.1 mm 4 mps 746 mmHg 62%
    21:00 +10°C° 0.2 mm 6 mps 745 mmHg 64%
    22:00 +10°C° 0.2 mm 7 mps 745 mmHg 66%
    23:00 +10°C° 0.2 mm 8 mps 744 mmHg 68%

    26 April, Friday

    Time Temperature Precipitation Wind Pressure Humidity
    00:00 +9°C° 0 mm 8 mps 744 mmHg 68%
    01:00 +7°C° 0 mm 8 mps 744 mmHg 69%
    02:00 +7°C° 0 mm 8 mps 743 mmHg 70%
    03:00 +6°C° 0 mm 8 mps 744 mmHg 72%
    04:00 +5°C° 0 mm 8 mps 744 mmHg 74%
    05:00 +5°C° 0 mm 8 mps 744 mmHg 76%
    06:00 +5°C° 0 mm 7 mps 745 mmHg 74%
    07:00 +5°C° 0 mm 6 mps 745 mmHg 72%
    08:00 +6°C° 0 mm 5 mps 746 mmHg 69%
    09:00 +7°C° 0.1 mm 4 mps 746 mmHg 68%
    10:00 +7°C° 0.1 mm 4 mps 747 mmHg 67%
    11:00 +9°C° 0.1 mm 3 mps 747 mmHg 65%
    12:00 +7°C° 0.4 mm 4 mps 747 mmHg 67%
    13:00 +6°C° 0.4 mm 5 mps 747 mmHg 70%
    14:00 +4°C° 0.4 mm 6 mps 747 mmHg 72%
    15:00 +4°C° 0.1 mm 6 mps 748 mmHg 70%
    16:00 +3°C° 0.1 mm 6 mps 748 mmHg 69%
    17:00 +3°C° 0.1 mm 6 mps 749 mmHg 67%
    18:00 +2°C° 0 mm 5 mps 750 mmHg 65%
    19:00 +3°C° 0 mm 4 mps 750 mmHg 62%
    20:00 +3°C° 0 mm 4 mps 751 mmHg 60%
    21:00 +2°C° 0 mm 3 mps 751 mmHg 61%
    22:00 +3°C° 0 mm 2 mps 752 mmHg 62%
    23:00 +3°C° 0 mm 1 mps 752 mmHg 64%

    27 April, Saturday

    Time Temperature Precipitation Wind Pressure Humidity
    00:00 +2°C° 0 mm 2 mps 752 mmHg 64%
    01:00 +2°C° 0 mm 2 mps 751 mmHg 65%
    02:00 +1°C° 0 mm 2 mps 751 mmHg 66%
    03:00 +1°C° 0 mm 2 mps 751 mmHg 67%
    04:00 +1°C° 0 mm 2 mps 750 mmHg 68%
    05:00 +1°C° 0 mm 2 mps 750 mmHg 69%
    06:00 +1°C° 0 mm 3 mps 750 mmHg 64%
    07:00 +2°C° 0 mm 3 mps 749 mmHg 60%
    08:00 +4°C° 0 mm 4 mps 749 mmHg 56%
    09:00 +5°C° 0 mm 4 mps 749 mmHg 52%
    10:00 +6°C° 0 mm 5 mps 748 mmHg 49%
    11:00 +8°C° 0 mm 6 mps 748 mmHg 45%
    12:00 +6°C° 0.1 mm 7 mps 749 mmHg 46%
    13:00 +5°C° 0.1 mm 8 mps 749 mmHg 47%
    14:00 +3°C° 0.1 mm 9 mps 749 mmHg 48%
    15:00 +2°C° 0 mm 9 mps 750 mmHg 46%
    16:00 +2°C° 0 mm 9 mps 751 mmHg 43%
    17:00 +1°C° 0 mm 9 mps 752 mmHg 41%
    18:00 0°C° 0 mm 7 mps 753 mmHg 43%
    19:00 -1°C° 0 mm 6 mps 754 mmHg 45%
    20:00 0°C° 0 mm 4 mps 755 mmHg 48%
    21:00 -1°C° 0 mm 4 mps 756 mmHg 50%
    22:00 -1°C° 0 mm 3 mps 756 mmHg 53%
    23:00 -1°C° 0 mm 3 mps 757 mmHg 55%

    28 April, Sunday

    Time Temperature Precipitation Wind Pressure Humidity
    00:00 -1°C° 0 mm 3 mps 757 mmHg 55%
    01:00 -1°C° 0 mm 3 mps 758 mmHg 56%
    02:00 -1°C° 0 mm 3 mps 758 mmHg 56%
    03:00 -1°C° 0 mm 3 mps 758 mmHg 56%
    04:00 -2°C° 0 mm 4 mps 758 mmHg 55%
    05:00 -2°C° 0 mm 5 mps 758 mmHg 54%
    06:00 -1°C° 0 mm 6 mps 757 mmHg 48%
    07:00 +2°C° 0 mm 7 mps 757 mmHg 41%
    08:00 +4°C° 0 mm 8 mps 757 mmHg 35%
    09:00 +5°C° 0 mm 9 mps 757 mmHg 33%
    10:00 +7°C° 0 mm 9 mps 756 mmHg 31%
    11:00 +8°C° 0 mm 9 mps 756 mmHg 29%
    12:00 +9°C° 0 mm 10 mps 755 mmHg 29%
    13:00 +11°C° 0 mm 10 mps 754 mmHg 28%
    14:00 +13°C° 0 mm 10 mps 753 mmHg 27%
    15:00 +13°C° 0 mm 9 mps 752 mmHg 28%
    16:00 +13°C° 0 mm 9 mps 751 mmHg 29%
    17:00 +15°C° 0 mm 9 mps 751 mmHg 29%
    18:00 +13°C° 0 mm 8 mps 750 mmHg 33%
    19:00 +12°C° 0 mm 8 mps 750 mmHg 36%
    20:00 +11°C° 0 mm 7 mps 750 mmHg 39%
    21:00 +11°C° 0 mm 8 mps 749 mmHg 40%
    22:00 +11°C° 0 mm 9 mps 749 mmHg 42%
    23:00 +11°C° 0 mm 9 mps 748 mmHg 43%
    Show more